This is the latest recevied weather packets stored in our database for station/object KI2K. If no packets are shown the sender has not sent any weather packets the latest 10 day(s).
| Time | Temp. | Humidity | Pressure | Rain* | Wind** | Luminosity | Snow |
|---|---|---|---|---|---|---|---|
| 1777835671 | 16.11° C | 54% | 1014.5 hPa | 0 mm | - | 164 W/m² | - |
| 1777835367 | 16.11° C | 54% | 1014.3 hPa | 0 mm | - | 269 W/m² | - |
| 1777835065 | 16.11° C | 53% | 1014 hPa | 0 mm | - | 386 W/m² | - |
| 1777834762 | 16.11° C | 52% | 1013.8 hPa | 0 mm | - | 317 W/m² | - |
| 1777834458 | 16.67° C | 50% | 1013.9 hPa | 0 mm | - | 223 W/m² | - |
| 1777834157 | 16.67° C | 51% | 1014.1 hPa | 0 mm | - | 602 W/m² | - |
| 1777833854 | 16.11° C | 53% | 1014.3 hPa | 0 mm | - | 386 W/m² | - |
| 1777833551 | 16.11° C | 53% | 1014.5 hPa | 0 mm | - | 356 W/m² | - |
| 1777833247 | 16.67° C | 52% | 1014.3 hPa | 0 mm | - | 304 W/m² | - |
| 1777832944 | 16.67° C | 52% | 1014.3 hPa | 0 mm | - | 523 W/m² | - |
| 1777832644 | 15.56° C | 53% | 1014.7 hPa | 0 mm | - | 672 W/m² | - |
| 1777832340 | 15.56° C | 53% | 1014.8 hPa | 0 mm | - | 187 W/m² | - |
| 1777832037 | 15.56° C | 53% | 1015.2 hPa | 0 mm | - | 234 W/m² | - |
| 1777831733 | 16.67° C | 52% | 1015.2 hPa | 0 mm | - | 391 W/m² | - |
| 1777831431 | 16.11° C | 53% | 1015.2 hPa | 0 mm | - | 554 W/m² | - |
| 1777831128 | 16.11° C | 52% | 1015.3 hPa | 0 mm | - | 293 W/m² | - |
| 1777830826 | 15.56° C | 53% | 1015.4 hPa | 0 mm | - | 390 W/m² | - |
| 1777830521 | 16.11° C | 52% | 1015.6 hPa | 0 mm | - | 442 W/m² | - |
| 1777830219 | 16.11° C | 51% | 1015.7 hPa | 0 mm | - | 667 W/m² | - |
| 1777829914 | 16.11° C | 52% | 1015.7 hPa | 0 mm | - | 558 W/m² | - |
| 1777829611 | 16.67° C | 50% | 1016.1 hPa | 0 mm | - | 784 W/m² | - |
| 1777829308 | 16.67° C | 52% | 1016 hPa | 0 mm | - | 428 W/m² | - |
| 1777829006 | 16.11° C | 53% | 1016.1 hPa | 0 mm | - | 805 W/m² | - |
| 1777828701 | 15.56° C | 51% | 1016.2 hPa | 0 mm | - | 602 W/m² | - |
| 1777828398 | 16.11° C | 51% | 1016.4 hPa | 0 mm | - | 294 W/m² | - |
* Rain latest hour (hover to see other rain measurements)
** Current wind speed in m/s (hover to see current wind gust speed)